Location: *
(45.5224°N, 122.7471°W)
Time: 04:29:09
(UTC+00:00)

CENTAUR R/B - Pass Details

Date: 09 April 2020
Orbit: 761 x 1427 km, 63.5° (Epoch: 24 May)

Event Time Altitude Azimuth Distance (km) Brightness Sun altitude
Exits shadow 12:42:38 11° 259° (WSW) 2,540 4.0 -9.6°
Maximum altitude 12:48:04 38° 325° (NW) 1,535 3.4 -8.7°
Drops below altitude 10° 12:54:47 10° 32° (NNE) 3,088 6.0 -7.6°
Sets 12:58:00 0° 40° (NE) 4,161 6.9 -7.1°
